[[{"header":{"parameterUnit":"m.s-1","parameterCategory":2,"la1":30.2991,"la2":30.254,"lo1":-89.0895,"lo2":-89.0444,"dy":0.0017,"dx":0.0017,"nx":28,"ny":28,"refTime":"2025-09-19T03:00:00:Z","depth":"0","parameterNumber":2,"parameterNumberName":"U-component_of_CURRENTS"},"data":[0,0,0,0,0,0,0,0,0,0,0,0,0,0,0,0,0,0,0,0,0,0,0,0,0,0,0,0,0,0,0,0,0,0,0,0,0,0,0,0,0,0,0,0,0,0,0,0,0,0,0,0,0,0,0,0,0,0,0.2251,0.2251,0,0.2248,0.2248,0.2248,0.2242,0.2242,0.2242,0.2241,0.2258,0.2259,0.2259,0,0,0,0,0,0,0,0,0,0,0,0,0,0.2289,0.2288,0.2251,0.2251,0.2251,0.2248,0.2248,0.2248,0.2242,0.2242,0.2241,0.2241,0.2258,0.2259,0.2259,0,0,0,0,0,0,0,0,0,0,0,0,0,0.2277,0.2288,0.2251,0.2248,0.2248,0.2248,0.2248,0.2248,0.2242,0.2242,0.2241,0.2241,0.2258,0.2259,0.2259,0.2266,0,0,0.2262,0.2262,0,0,0,0,0,0,0,0,0.2278,0.2276,0.2249,0.2248,0.2248,0.2246,0.2267,0.2255,0.2242,0.2243,0.2241,0.2241,0.2256,0.2257,0.2256,0.2266,0.2267,0.2262,0.2262,0.2262,0.2263,0,0,0,0,0,0,0,0.2279,0.2276,0.2249,0.2249,0.2248,0.226,0.2258,0.2265,0.225,0.2243,0.2243,0.2244,0.2256,0.2255,0.2256,0.2267,0.2262,0.2262,0.2263,0.2263,0.2342,0.2344,0,0,0,0,0,0,0.2278,0.2277,0.2249,0.2249,0.2264,0.2259,0.2257,0.2246,0.225,0.225,0.2244,0.2243,0.2254,0.2255,0.2257,0.2318,0.2262,0.2263,0.2264,0.2341,0.2343,0.2345,0,0,0,0,0,0,0.2279,0.2276,0.2249,0.2264,0.2262,0.2258,0.2247,0.2246,0.225,0.225,0.2251,0.2249,0.2254,0.2256,0.2279,0.2317,0.2264,0.2264,0.2339,0.2341,0.2344,0.2406,0,0,0,0,0,0,0.228,0.2275,0.2274,0.2264,0.2261,0.2262,0.2247,0.2246,0.2251,0.225,0.2255,0.2256,0.2254,0.2278,0.228,0.2317,0.2265,0.2337,0.234,0.2343,0.2402,0.2411,0.2418,0,0,0,0,0,0.2281,0.2286,0.2274,0.2271,0.2256,0.2263,0.2263,0.226,0.2251,0.2261,0.2267,0.2256,0.23,0.228,0.2282,0.2319,0.2335,0.2339,0.2343,0.2399,0.2409,0.2418,0,0,0,0,0,0,0.2313,0.2285,0.2272,0.227,0.227,0.2262,0.2271,0.2265,0.2275,0.2277,0.2271,0.2273,0.2315,0.2305,0.2283,0.2353,0.2318,0.2323,0.2361,0.237,0.2378,0.2413,0.2265,0,0,0,0,0,0.2315,0.2304,0.2289,0.229,0.2287,0.2278,0.2281,0.2279,0.2283,0.2287,0.2289,0.2301,0.2331,0.2339,0.2358,0.2385,0.2411,0.2413,0.2421,0.2428,0.2459,0.2531,0.2549,0.2357,0.2357,0.2357,0,0,0.2329,0.2312,0.2308,0.2295,0.229,0.2304,0.228,0.2289,0.2312,0.2288,0.232,0.233,0.2346,0.2388,0.2405,0.2383,0.2493,0.2432,0.2438,0.2466,0.2537,0.2556,0.2573,0.2359,0.2359,0.2359,0,0,0.2357,0.2334,0.2336,0.234,0.2337,0.233,0.2334,0.233,0.2339,0.2363,0.2368,0.2409,0.2418,0.2459,0.2476,0.254,0.2537,0.253,0.2593,0.2663,0.268,0.2695,0.2739,0.2758,0.2528,0.2528,0.2528,0,0.2375,0.2376,0.2344,0.2358,0.2374,0.2344,0.2372,0.2376,0.2385,0.2408,0.2383,0.2456,0.2467,0.2552,0.2577,0.2563,0.2585,0.2553,0.2675,0.2691,0.2706,0.2747,0.2767,0.2531,0.2531,0.2531,0.253,0,0.2404,0.2418,0.2425,0.2424,0.2437,0.2458,0.2458,0.2466,0.2462,0.2477,0.2546,0.2567,0.2613,0.2624,0.262,0.2731,0.2706,0.2681,0.2652,0.2729,0.2767,0.2787,0.2536,0.2535,0.2534,0.2533,0,0,0.2412,0.2439,0.2444,0.2468,0.248,0.2493,0.2525,0.2557,0.259,0.2605,0.2671,0.2734,0.2739,0.2763,0.2768,0.2832,0.2949,0.28,0.2802,0.2847,0.3087,0.2986,0.2997,0.2936,0.294,0.2943,0.3067,0,0.2447,0.2493,0.2499,0.2559,0.2585,0.2585,0.2622,0.265,0.2664,0.2713,0.2757,0.2821,0.2791,0.2822,0.2884,0.2942,0.3005,0.2917,0.3005,0.3008,0.2912,0.3019,0.2806,0.2892,0.3086,0.309,0.3092,0,0.2466,0.2502,0.2564,0.2631,0.2643,0.2673,0.2723,0.2757,0.2812,0.2833,0.2892,0.2912,0.3024,0.2975,0.3122,0.306,0.3089,0.3122,0.3126,0.3031,0.2945,0.285,0.292,0.2787,0.3122,0.312,0.3117,0,0.2472,0.2545,0.2598,0.2622,0.2686,0.2718,0.2748,0.2796,0.2831,0.2917,0.2951,0.3056,0.3113,0.3188,0.3228,0.3191,0.3371,0.3322,0.3261,0.3252,0.3093,0.3063,0.305,0.3439,0.3439,0.3438,0.3438,0,0.2498,0.2547,0.2606,0.2639,0.2715,0.2747,0.2814,0.2852,0.2912,0.2971,0.3017,0.3083,0.317,0.3251,0.3286,0.3334,0.3416,0.3313,0.3298,0.3104,0.3075,0.2966,0.2943,0.3443,0.3442,0.3441,0.344,0,0.25,0.2534,0.2607,0.2689,0.2717,0.2768,0.2839,0.2881,0.2935,0.3011,0.3046,0.3139,0.3249,0.3306,0.3439,0.3396,0.3345,0.345,0.3202,0.3154,0.2943,0.2933,0.287,0.2805,0.3421,0.3419,0.3418,0,0.2501,0.2536,0.2634,0.2677,0.272,0.2788,0.283,0.2889,0.2927,0.304,0.3082,0.32,0.3262,0.339,0.3357,0.3396,0.3307,0.3209,0.3108,0.2938,0.2917,0.2811,0.2755,0.2921,0.2916,0.2911,0.2908,0,0.2523,0.2554,0.2615,0.2703,0.276,0.2813,0.2874,0.2897,0.2964,0.3012,0.3102,0.3166,0.3243,0.3184,0.3193,0.3177,0.3004,0.3121,0.3021,0.2607,0.2419,0.2343,0.2824,0.287,0.2874,0.2876,0.2879,0.288,0.2535,0.258,0.2653,0.2731,0.2789,0.2823,0.2819,0.2867,0.29,0.2917,0.3044,0.3061,0.3002,0.2978,0.2947,0.2668,0.2767,0.2532,0.2562,0.2491,0.2338,0.2727,0.27,0.2703,0.2705,0.2707,0.2709,0,0.2547,0.2599,0.2675,0.2745,0.2774,0.2811,0.2831,0.2777,0.2761,0.2818,0.2845,0.2751,0.2614,0.2531,0.2252,0.2111,0.201,0.2031,0.1831,0.1833,0.223,0.2111,0.1859,0.1859,0.1859,0.1859,0.186,0.186,0.2557,0.2623,0.2658,0.2703,0.2733,0.2691,0.2664,0.2592,0.2578,0.2468,0.2398,0.241,0.2279,0.1995,0.171,0.1654,0.1536,0.1415,0.1522,0.1767,0.1814,0.1859,0.1738,0.1412,0.1412,0.0961,0.0958,0.0955]},{"header":{"parameterUnit":"m.s-1","parameterCategory":2,"la1":30.2991,"la2":30.254,"lo1":-89.0895,"lo2":-89.0444,"dy":0.0017,"dx":0.0017,"nx":28,"ny":28,"refTime":"2025-09-19T03:00:00:Z","depth":"0","parameterNumber":3,"parameterNumberName":"V-component_of_CURRENTS"},"data":[0,0,0,0,0,0,0,0,0,0,0,0,0,0,0,0,0,0,0,0,0,0,0,0,0,0,0,0,0,0,0,0,0,0,0,0,0,0,0,0,0,0,0,0,0,0,0,0,0,0,0,0,0,0,0,0,0,0,0.0127,0.0127,0,0.01,0.01,0.01,0.0072,0.0072,0.0071,0.0071,0.0025,0.0024,0.0023,0,0,0,0,0,0,0,0,0,0,0,0,0,0.0128,0.0128,0.0127,0.0127,0.0126,0.01,0.01,0.01,0.0072,0.0072,0.0071,0.0071,0.0025,0.0024,0.0023,0,0,0,0,0,0,0,0,0,0,0,0,0,0.0116,0.0128,0.0127,0.011,0.0109,0.0101,0.01,0.0099,0.0072,0.0072,0.0071,0.0071,0.0026,0.0024,0.0023,0.0023,0,0,0.0019,0.0018,0,0,0,0,0,0,0,0,0.0117,0.0116,0.0113,0.0111,0.0109,0.009,0.0084,0.0073,0.0072,0.0085,0.0071,0.0071,0.0046,0.0043,0.0038,0.0021,0.0019,0.0018,0.0018,0.0017,0.0017,0,0,0,0,0,0,0,0.0118,0.0117,0.0115,0.0113,0.0111,0.0095,0.0093,0.0081,0.0067,0.0084,0.0082,0.0081,0.0045,0.0039,0.0036,0.0018,0.0019,0.0017,0.0016,0.0016,0.0003,0.0004,0,0,0,0,0,0,0.0125,0.0118,0.0116,0.0115,0.0113,0.0096,0.0094,0.0096,0.0068,0.0063,0.0081,0.008,0.0042,0.0038,0.0035,0.0048,0.0017,0.0016,0.0015,0.0003,0.0004,0.0004,0,0,0,0,0,0,0.0125,0.0125,0.0117,0.0116,0.0114,0.0097,0.0099,0.0096,0.0091,0.0066,0.0061,0.008,0.0041,0.0037,0.0026,0.0045,0.0015,0.0014,0.0002,0.0003,0.0004,0.0064,0,0,0,0,0,0,0.0126,0.0126,0.0127,0.0117,0.0115,0.0117,0.01,0.0095,0.0091,0.0089,0.0064,0.0059,0.0041,0.0028,0.0025,0.0042,0.0013,0.0002,0.0003,0.0004,0.0061,0.0067,0.0071,0,0,0,0,0,0.0126,0.0134,0.0127,0.0127,0.0118,0.0118,0.0115,0.01,0.0092,0.0093,0.0075,0.006,0.0032,0.0028,0.0023,0.0041,0.0001,0.0002,0.0003,0.0059,0.0066,0.0071,0,0,0,0,0,0,0.0132,0.0131,0.0124,0.013,0.0126,0.0113,0.0113,0.0105,0.0092,0.0088,0.0064,0.0058,0.0057,0.0039,0.0034,0.004,0.0015,0.0016,0.0059,0.0065,0.007,0.0114,0.0011,0,0,0,0,0,0.0136,0.0144,0.0136,0.0141,0.014,0.0127,0.0124,0.0116,0.0105,0.0099,0.0083,0.0067,0.0059,0.0053,0.004,0.0042,0.006,0.005,0.0056,0.006,0.0093,0.0154,0.0169,0.0008,0.0008,0.0008,0,0,0.014,0.0141,0.0144,0.0144,0.0137,0.0143,0.0124,0.0124,0.0133,0.0096,0.01,0.0082,0.0062,0.0065,0.0063,0.0052,0.0106,0.0061,0.0066,0.0097,0.0157,0.0173,0.0187,0.0009,0.0009,0.0008,0,0,0.0158,0.0153,0.0165,0.0164,0.0161,0.0155,0.0158,0.0149,0.0149,0.0148,0.0129,0.0134,0.0104,0.0112,0.0107,0.0134,0.013,0.0114,0.0179,0.0237,0.0252,0.0265,0.0276,0.029,0.0118,0.0118,0.0118,0,0.0162,0.0177,0.0168,0.0178,0.0183,0.0165,0.018,0.0178,0.0168,0.0185,0.0155,0.0163,0.0137,0.0175,0.0178,0.0151,0.0166,0.0157,0.0247,0.0261,0.0274,0.0282,0.0297,0.0121,0.0121,0.0121,0.012,0,0.019,0.0199,0.0206,0.0216,0.0219,0.0228,0.0227,0.0236,0.0229,0.0234,0.0264,0.0243,0.0258,0.0241,0.0213,0.0288,0.026,0.0247,0.024,0.0295,0.0298,0.0312,0.0126,0.0125,0.0124,0.0123,0,0,0.0209,0.0224,0.0226,0.024,0.0241,0.0251,0.0273,0.0301,0.0337,0.0328,0.0387,0.0372,0.0376,0.0374,0.0351,0.0394,0.0469,0.0361,0.0362,0.0385,0.0572,0.0525,0.0535,0.0476,0.0479,0.0482,0.0527,0,0.0233,0.0266,0.0266,0.0298,0.0314,0.0314,0.0341,0.0364,0.038,0.043,0.0441,0.0473,0.0421,0.0435,0.0475,0.0485,0.0516,0.0457,0.0506,0.0507,0.0471,0.0555,0.0552,0.0592,0.0541,0.0544,0.0545,0,0.0257,0.0281,0.0317,0.0352,0.036,0.0378,0.0436,0.0457,0.0517,0.0535,0.0585,0.0591,0.0658,0.0599,0.0672,0.0638,0.0615,0.061,0.0611,0.0569,0.0489,0.0534,0.062,0.0536,0.0567,0.0565,0.0564,0,0.0278,0.0314,0.0349,0.0359,0.0394,0.0422,0.0444,0.0495,0.0537,0.0617,0.0668,0.073,0.078,0.0795,0.0772,0.0736,0.0843,0.0789,0.072,0.0714,0.0726,0.0715,0.0758,0.0845,0.0845,0.0845,0.0845,0,0.0299,0.0326,0.0366,0.0384,0.0439,0.0453,0.052,0.0552,0.0626,0.0708,0.0731,0.0823,0.0839,0.0887,0.0841,0.084,0.09,0.0767,0.0749,0.0738,0.0728,0.0665,0.0617,0.0847,0.0846,0.0846,0.0846,0,0.0306,0.0328,0.0374,0.0428,0.0446,0.0485,0.0552,0.061,0.0672,0.0789,0.0825,0.0926,0.1002,0.0981,0.1014,0.0936,0.0885,0.089,0.085,0.0827,0.0668,0.0622,0.0671,0.0651,0.0841,0.084,0.084,0,0.0315,0.0339,0.0402,0.0435,0.0458,0.0517,0.0562,0.0624,0.0697,0.0861,0.0935,0.1042,0.1145,0.116,0.1061,0.0989,0.0896,0.0884,0.0818,0.0696,0.0632,0.0596,0.0573,0.0839,0.0839,0.0838,0.0838,0,0.0339,0.0357,0.0393,0.0461,0.0513,0.0579,0.0657,0.0725,0.083,0.0951,0.113,0.1233,0.1252,0.1226,0.1096,0.1019,0.0835,0.0871,0.0792,0.0691,0.0616,0.0574,0.0727,0.0835,0.0835,0.0836,0.0836,0.0836,0.0359,0.0385,0.0435,0.0497,0.0559,0.0656,0.0733,0.0843,0.099,0.1193,0.1267,0.1446,0.1343,0.1202,0.1072,0.0801,0.082,0.0706,0.0675,0.0659,0.0615,0.0734,0.0786,0.0786,0.0786,0.0786,0.0786,0,0.0395,0.0422,0.0475,0.0562,0.0641,0.0671,0.081,0.0912,0.111,0.1292,0.1457,0.1523,0.1377,0.117,0.0821,0.0641,0.0581,0.0543,0.0508,0.0505,0.0661,0.0633,0.0598,0.0598,0.0598,0.0598,0.0598,0.0598,0.0419,0.0467,0.0492,0.0624,0.0691,0.0824,0.0917,0.1071,0.1224,0.1451,0.1578,0.167,0.15,0.0923,0.0547,0.0472,0.0368,0.0338,0.0298,0.0393,0.0405,0.0417,0.0381,0.0293,0.0293,0.0163,0.0162,0.0161]}],[{"header":{"parameterUnit":"m.s-1","parameterCategory":2,"la1":30.2991,"la2":30.254,"lo1":-89.0895,"lo2":-89.0444,"dy":0.0017,"dx":0.0017,"nx":28,"ny":28,"refTime":"2025-09-19T03:00:00:Z","depth":"2","parameterNumber":2,"parameterNumberName":"U-component_of_CURRENTS"},"data":[0,0,0,0,0,0,0,0,0,0,0,0,0,0,0,0,0,0,0,0,0,0,0,0,0,0,0,0,0,0,0,0,0,0,0,0,0,0,0,0,0,0,0,0,0,0,0,0,0,0,0,0,0,0,0,0,0,0,0.1706,0.1706,0,0.1695,0.1694,0.1694,0.1681,0.1681,0.1682,0.1682,0.1742,0.1743,0.1745,0,0,0,0,0,0,0,0,0,0,0,0,0,0.1698,0.1698,0.1706,0.1706,0.1707,0.1695,0.1694,0.1694,0.1681,0.1681,0.1682,0.1682,0.1742,0.1743,0.1745,0,0,0,0,0,0,0,0,0,0,0,0,0,0.169,0.1698,0.1706,0.1703,0.1704,0.1695,0.1694,0.1693,0.1681,0.1681,0.1682,0.1683,0.1741,0.1743,0.1745,0.1746,0,0,0.1751,0.1752,0,0,0,0,0,0,0,0,0.169,0.1689,0.1703,0.1704,0.1704,0.1695,0.1714,0.1717,0.1681,0.1683,0.1682,0.1683,0.1737,0.1739,0.1726,0.1748,0.1751,0.1751,0.1752,0.1753,0.1753,0,0,0,0,0,0,0,0.1691,0.169,0.1695,0.1704,0.1704,0.1698,0.1696,0.1713,0.1704,0.1683,0.1683,0.1692,0.1737,0.1724,0.1728,0.1752,0.1751,0.1753,0.1754,0.1754,0.1813,0.1813,0,0,0,0,0,0,0.1705,0.169,0.1696,0.1696,0.1705,0.1698,0.1696,0.1692,0.1702,0.1705,0.1691,0.1691,0.1721,0.1725,0.173,0.1802,0.1753,0.1755,0.1756,0.1813,0.1813,0.1814,0,0,0,0,0,0,0.1704,0.1705,0.1696,0.1698,0.1698,0.1698,0.1693,0.1692,0.1701,0.1709,0.1712,0.1705,0.1721,0.1727,0.1754,0.1802,0.1755,0.1757,0.1812,0.1813,0.1813,0.1901,0,0,0,0,0,0,0.1704,0.1704,0.1708,0.1699,0.1698,0.1707,0.1694,0.1692,0.1707,0.1707,0.1722,0.1726,0.1722,0.1751,0.1756,0.1804,0.1759,0.1812,0.1812,0.1813,0.1898,0.1905,0.1911,0,0,0,0,0,0.1703,0.1709,0.1707,0.1709,0.1702,0.1708,0.1706,0.1704,0.1708,0.1713,0.1719,0.1726,0.176,0.1753,0.1758,0.1808,0.1811,0.1812,0.1813,0.1895,0.1904,0.1911,0,0,0,0,0,0,0.1712,0.1708,0.1707,0.1712,0.1718,0.1709,0.1717,0.1718,0.1723,0.1727,0.1732,0.1737,0.1781,0.177,0.1763,0.1821,0.1787,0.1789,0.1847,0.1856,0.1862,0.1883,0.176,0,0,0,0,0,0.1715,0.1713,0.1716,0.1722,0.1728,0.1726,0.173,0.1729,0.1734,0.1736,0.1747,0.1757,0.1784,0.1801,0.181,0.1844,0.1859,0.1875,0.1882,0.1888,0.1905,0.1966,0.1981,0.1817,0.1817,0.1817,0,0,0.1719,0.172,0.1718,0.1724,0.1726,0.1736,0.1729,0.1741,0.1765,0.1745,0.1779,0.1785,0.1796,0.1832,0.1852,0.1836,0.1939,0.1889,0.1894,0.1909,0.1969,0.1986,0.2,0.1817,0.1817,0.1817,0,0,0.1733,0.173,0.1737,0.1739,0.1752,0.1753,0.1765,0.1767,0.1788,0.1812,0.1815,0.1856,0.1865,0.1902,0.1919,0.1968,0.1972,0.1956,0.2016,0.2075,0.209,0.2104,0.2139,0.2155,0.196,0.1961,0.1961,0,0.1741,0.1747,0.1743,0.1753,0.1759,0.1767,0.178,0.1805,0.1818,0.1847,0.1833,0.1891,0.1912,0.1991,0.2004,0.1994,0.2002,0.1992,0.2088,0.2102,0.2114,0.2148,0.2164,0.1965,0.1964,0.1964,0.1964,0,0.1752,0.1765,0.1773,0.1784,0.1789,0.1802,0.183,0.1853,0.1875,0.1901,0.1976,0.2,0.2039,0.2054,0.2048,0.2146,0.2115,0.2094,0.2079,0.2137,0.2167,0.2183,0.1971,0.197,0.1968,0.1967,0,0,0.175,0.1777,0.178,0.1802,0.1804,0.182,0.1859,0.191,0.1965,0.1995,0.2072,0.2134,0.2152,0.2172,0.2186,0.224,0.2344,0.2201,0.2202,0.2255,0.2453,0.2313,0.2316,0.2331,0.2335,0.2337,0.2438,0,0.1765,0.1801,0.1797,0.1837,0.1861,0.1865,0.1907,0.1952,0.1999,0.2076,0.2147,0.2227,0.2201,0.2241,0.2291,0.2332,0.2389,0.2318,0.2372,0.2374,0.2259,0.2332,0.2118,0.2178,0.2453,0.2456,0.2458,0,0.1772,0.1803,0.1835,0.1889,0.1898,0.1916,0.1978,0.202,0.2119,0.216,0.2237,0.2293,0.2406,0.2371,0.2485,0.243,0.2454,0.2477,0.248,0.2333,0.2264,0.2162,0.2196,0.2484,0.2482,0.248,0.2478,0,0.178,0.1833,0.1866,0.1873,0.1922,0.1946,0.1979,0.2047,0.2101,0.2237,0.2287,0.2405,0.2487,0.2536,0.2572,0.2543,0.2669,0.2641,0.2542,0.2531,0.2353,0.232,0.2736,0.2736,0.2736,0.2735,0.2735,0,0.1783,0.1815,0.1883,0.1896,0.1956,0.1978,0.2044,0.2093,0.2176,0.2248,0.2346,0.2429,0.2532,0.2603,0.2615,0.2612,0.2709,0.2574,0.2559,0.2371,0.234,0.2601,0.2584,0.2739,0.2738,0.2738,0.2737,0,0.1752,0.1798,0.1845,0.1918,0.1953,0.1986,0.206,0.2106,0.2193,0.2287,0.2343,0.2483,0.2574,0.2629,0.2731,0.2666,0.2688,0.2663,0.2419,0.2371,0.2504,0.249,0.2587,0.2583,0.258,0.2577,0.2575,0,0.1719,0.1758,0.1845,0.188,0.1908,0.1977,0.2014,0.2101,0.2138,0.2306,0.2342,0.2496,0.2535,0.2602,0.2565,0.2554,0.2642,0.234,0.2254,0.2518,0.2495,0.2486,0.2477,0.2062,0.2056,0.2051,0.2047,0,0.1691,0.1733,0.1775,0.1839,0.1889,0.1942,0.2006,0.2033,0.2134,0.2203,0.2293,0.2353,0.2416,0.2308,0.2289,0.2258,0.2317,0.223,0.2612,0.2107,0.2024,0.2,0.2009,0.2001,0.2005,0.2009,0.2011,0.2013,0.1673,0.1688,0.1762,0.1805,0.1864,0.1894,0.1925,0.1953,0.1998,0.2034,0.2137,0.2115,0.2108,0.1962,0.1899,0.1877,0.2043,0.1945,0.1961,0.1984,0.1878,0.1792,0.1706,0.1708,0.1711,0.1713,0.1715,0,0.1665,0.1703,0.1735,0.179,0.18,0.1874,0.1915,0.188,0.1878,0.1845,0.1847,0.1634,0.154,0.1581,0.146,0.1429,0.1432,0.1381,0.1378,0.1424,0.1464,0.1334,0.1016,0.1014,0.1012,0.1011,0,0,0.1676,0.1695,0.1694,0.1715,0.1768,0.1754,0.1773,0.1722,0.1658,0.1501,0.1425,0.1429,0.1487,0.1208,0.1168,0.1085,0.1247,0.1036,0.1594,0.1635,0.1673,0.1784,0.1633,0,0,0,0,0]},{"header":{"parameterUnit":"m.s-1","parameterCategory":2,"la1":30.2991,"la2":30.254,"lo1":-89.0895,"lo2":-89.0444,"dy":0.0017,"dx":0.0017,"nx":28,"ny":28,"refTime":"2025-09-19T03:00:00:Z","depth":"2","parameterNumber":3,"parameterNumberName":"V-component_of_CURRENTS"},"data":[0,0,0,0,0,0,0,0,0,0,0,0,0,0,0,0,0,0,0,0,0,0,0,0,0,0,0,0,0,0,0,0,0,0,0,0,0,0,0,0,0,0,0,0,0,0,0,0,0,0,0,0,0,0,0,0,0,0,0.0043,0.0042,0,0.0031,0.0031,0.0031,0.0019,0.0018,0.0018,0.0018,-0.0025,-0.0026,-0.0027,0,0,0,0,0,0,0,0,0,0,0,0,0,0.0038,0.0038,0.0043,0.0042,0.0042,0.0031,0.0031,0.0031,0.0019,0.0018,0.0018,0.0018,-0.0025,-0.0026,-0.0027,0,0,0,0,0,0,0,0,0,0,0,0,0,0.0035,0.0039,0.0043,0.0035,0.0034,0.0031,0.0031,0.0031,0.0019,0.0018,0.0018,0.0018,-0.0025,-0.0026,-0.0028,-0.0031,0,0,-0.0032,-0.0033,0,0,0,0,0,0,0,0,0.0035,0.0035,0.0036,0.0035,0.0034,0.0026,0.0013,0.0008,0.0019,0.0025,0.0018,0.0018,-0.0011,-0.0014,-0.0014,-0.0033,-0.0035,-0.0032,-0.0033,-0.0034,-0.0034,0,0,0,0,0,0,0,0.0036,0.0036,0.0038,0.0036,0.0035,0.0026,0.0025,0.0012,0.0008,0.0024,0.0023,0.0021,-0.0012,-0.0013,-0.0016,-0.0035,-0.0032,-0.0033,-0.0034,-0.0035,-0.0058,-0.0058,0,0,0,0,0,0,0.0038,0.0036,0.0039,0.0038,0.0034,0.0026,0.0026,0.0029,0.0009,0.0006,0.0022,0.0021,-0.001,-0.0014,-0.0017,-0.0024,-0.0034,-0.0035,-0.0036,-0.0058,-0.0058,-0.0058,0,0,0,0,0,0,0.0038,0.0038,0.0039,0.0036,0.0035,0.0027,0.003,0.0029,0.0026,0.0007,0.0004,0.002,-0.0011,-0.0015,-0.0028,-0.0026,-0.0036,-0.0037,-0.0059,-0.0058,-0.0058,-0.0037,0,0,0,0,0,0,0.0038,0.0038,0.0039,0.0036,0.0036,0.0038,0.0031,0.0029,0.0025,0.0024,0.0005,0.0001,-0.0011,-0.0026,-0.0029,-0.0028,-0.0038,-0.0059,-0.0059,-0.0058,-0.0038,-0.0036,-0.0034,0,0,0,0,0,0.0038,0.0042,0.004,0.004,0.0038,0.0038,0.0037,0.003,0.0025,0.0026,0.0013,0.0001,-0.0025,-0.0027,-0.0031,-0.003,-0.0059,-0.0059,-0.0058,-0.0039,-0.0036,-0.0034,0,0,0,0,0,0,0.0036,0.0041,0.0038,0.0043,0.004,0.0036,0.0035,0.0031,0.0022,0.002,0.0002,-0.0002,-0.0012,-0.0023,-0.0024,-0.0035,-0.0044,-0.0044,-0.0027,-0.0025,-0.0023,0.001,-0.0039,0,0,0,0,0,0.0037,0.0046,0.0044,0.0046,0.0046,0.0041,0.0039,0.0036,0.0028,0.0025,0.0012,-0.0001,-0.0012,-0.002,-0.0031,-0.0039,-0.0028,-0.004,-0.0038,-0.0037,-0.0012,0.002,0.0028,-0.0056,-0.0056,-0.0056,0,0,0.0036,0.0041,0.0044,0.0047,0.0045,0.0051,0.0039,0.0039,0.0046,0.0021,0.0022,0.0005,-0.0012,-0.0019,-0.0024,-0.0029,-0.0014,-0.0036,-0.0034,-0.001,0.0022,0.003,0.0038,-0.0056,-0.0056,-0.0056,0,0,0.0043,0.0043,0.0054,0.0055,0.0056,0.0056,0.0057,0.0054,0.0053,0.005,0.0035,0.0028,0.0004,0.0002,-0.0005,0.0003,-0.0004,-0.0013,0.0021,0.0052,0.006,0.0067,0.0062,0.0069,-0.0014,-0.0014,-0.0014,0,0.0042,0.0056,0.0054,0.0065,0.007,0.0061,0.0073,0.0072,0.0065,0.0071,0.0053,0.0045,0.0022,0.0031,0.0028,0.001,0.0014,0.0011,0.0056,0.0064,0.0071,0.0065,0.0072,-0.0012,-0.0013,-0.0013,-0.0013,0,0.0059,0.0067,0.0073,0.0089,0.0094,0.0101,0.0103,0.011,0.0105,0.0103,0.0109,0.0087,0.0088,0.0069,0.0047,0.0079,0.006,0.0056,0.0054,0.0081,0.0072,0.0079,-0.0011,-0.0011,-0.0012,-0.0012,0,0,0.0066,0.0083,0.0085,0.0096,0.0109,0.0116,0.0136,0.0152,0.017,0.0159,0.0185,0.0161,0.0154,0.0148,0.0122,0.0139,0.0168,0.0117,0.0118,0.0119,0.0214,0.0173,0.0176,0.0173,0.0175,0.0177,0.0177,0,0.0081,0.0106,0.0114,0.0138,0.0151,0.0159,0.018,0.0193,0.0198,0.0218,0.021,0.0215,0.0182,0.0178,0.0195,0.0185,0.0193,0.0167,0.0184,0.0184,0.0151,0.0187,0.0188,0.0187,0.0184,0.0185,0.0186,0,0.0099,0.0116,0.0143,0.017,0.0177,0.0191,0.0232,0.0246,0.0273,0.0279,0.0296,0.0286,0.0309,0.0273,0.0297,0.0281,0.0255,0.024,0.024,0.021,0.0159,0.0166,0.02,0.0198,0.0197,0.0196,0.0195,0,0.0112,0.0137,0.0162,0.0169,0.0199,0.0217,0.0234,0.0264,0.029,0.0319,0.035,0.0364,0.0387,0.0379,0.035,0.0327,0.0372,0.0335,0.0271,0.0265,0.0277,0.0269,0.0356,0.0356,0.0356,0.0356,0.0356,0,0.0128,0.0145,0.0166,0.0179,0.0215,0.0227,0.0269,0.029,0.0332,0.0392,0.0382,0.0451,0.0421,0.0438,0.039,0.0364,0.0409,0.0295,0.0279,0.0278,0.0271,0.0294,0.0287,0.0356,0.0356,0.0356,0.0356,0,0.0136,0.0148,0.0178,0.021,0.022,0.0245,0.0291,0.033,0.0364,0.045,0.0468,0.0528,0.0566,0.0513,0.0503,0.0423,0.0388,0.0358,0.0338,0.0319,0.024,0.0234,0.0287,0.0286,0.0285,0.0284,0.0284,0,0.0145,0.0159,0.02,0.0224,0.0237,0.0272,0.0308,0.0342,0.04,0.0524,0.0586,0.0637,0.0713,0.0658,0.0535,0.0431,0.0413,0.032,0.0277,0.0263,0.0241,0.0237,0.0232,0.0284,0.0284,0.0283,0.0283,0,0.0159,0.0171,0.0194,0.0254,0.0291,0.0339,0.0396,0.0454,0.0536,0.0646,0.081,0.0876,0.0814,0.0735,0.0543,0.0463,0.0333,0.0304,0.034,0.0293,0.0259,0.0237,0.0234,0.0279,0.0279,0.0279,0.028,0.028,0.0172,0.0189,0.023,0.0289,0.0336,0.0424,0.0485,0.0597,0.0739,0.0911,0.0955,0.104,0.0879,0.0658,0.051,0.032,0.0332,0.0235,0.0238,0.0241,0.0232,0.0198,0.0203,0.0203,0.0203,0.0203,0.0203,0,0.0192,0.0215,0.0269,0.0349,0.0427,0.0437,0.0561,0.0664,0.088,0.0993,0.1124,0.0981,0.0865,0.068,0.0402,0.023,0.022,0.0165,0.0193,0.0198,0.0203,0.0193,0.0152,0.0152,0.0151,0.0151,0,0,0.0206,0.0254,0.0289,0.0425,0.0479,0.0591,0.067,0.0846,0.0952,0.111,0.113,0.1106,0.0888,0.0662,0.0454,0.0309,0.0284,0.0268,0.0325,0.0387,0.0393,0.0259,0.0251,0,0,0,0,0]}],[{"header":{"parameterUnit":"m.s-1","parameterCategory":2,"la1":30.2991,"la2":30.254,"lo1":-89.0895,"lo2":-89.0444,"dy":0.0017,"dx":0.0017,"nx":28,"ny":28,"refTime":"2025-09-19T03:00:00:Z","depth":"4","parameterNumber":2,"parameterNumberName":"U-component_of_CURRENTS"},"data":[0,0,0,0,0,0,0,0,0,0,0,0,0,0,0,0,0,0,0,0,0,0,0,0,0,0,0,0,0,0,0,0,0,0,0,0,0,0,0,0,0,0,0,0,0,0,0,0,0,0,0,0,0,0,0,0,0,0,0.0779,0.0779,0,0.08,0.08,0.0801,0.0821,0.0821,0.0822,0.0822,0.0828,0.0828,0.0829,0,0,0,0,0,0,0,0,0,0,0,0,0,0.078,0.078,0.0779,0.0779,0.0779,0.08,0.08,0.0801,0.0821,0.0821,0.0822,0.0822,0.0828,0.0828,0.0829,0,0,0,0,0,0,0,0,0,0,0,0,0,0.079,0.078,0.0779,0.079,0.0791,0.08,0.08,0.0801,0.0821,0.0821,0.0822,0.0822,0.0828,0.0828,0.0829,0.0828,0,0,0.0829,0.0829,0,0,0,0,0,0,0,0,0.0789,0.079,0.0789,0.0789,0.0791,0.0806,0.0803,0.0808,0.0821,0.0812,0.0822,0.0822,0.0818,0.0819,0.0826,0.0828,0.0828,0.0829,0.0829,0.0829,0.0829,0,0,0,0,0,0,0,0.0789,0.079,0.079,0.0788,0.079,0.0802,0.0803,0.0804,0.0816,0.0813,0.0814,0.0813,0.0819,0.0826,0.0826,0.0828,0.0829,0.0829,0.0829,0.0829,0.0864,0.0865,0,0,0,0,0,0,0.078,0.0789,0.0789,0.079,0.0788,0.0801,0.0803,0.0803,0.0816,0.0818,0.0813,0.0814,0.0826,0.0826,0.0827,0.0846,0.0829,0.0829,0.083,0.0863,0.0864,0.0865,0,0,0,0,0,0,0.078,0.078,0.0788,0.0788,0.079,0.0801,0.08,0.0803,0.0827,0.0816,0.0817,0.0835,0.0826,0.0826,0.0843,0.0846,0.083,0.083,0.0862,0.0863,0.0865,0.0872,0,0,0,0,0,0,0.078,0.078,0.0787,0.0787,0.0789,0.0795,0.08,0.0803,0.0824,0.0826,0.0835,0.0835,0.0826,0.0843,0.0843,0.0846,0.083,0.0861,0.0863,0.0864,0.0871,0.0873,0.0876,0,0,0,0,0,0.078,0.078,0.0787,0.0788,0.0795,0.0795,0.0797,0.0807,0.0825,0.0831,0.0846,0.0836,0.0853,0.0844,0.0844,0.0846,0.086,0.0862,0.0864,0.087,0.0873,0.0875,0,0,0,0,0,0,0.0778,0.0782,0.079,0.079,0.0795,0.0797,0.0812,0.082,0.0839,0.085,0.0847,0.0847,0.0861,0.086,0.085,0.0863,0.0854,0.0856,0.0859,0.0862,0.0864,0.0888,0.083,0,0,0,0,0,0.0782,0.0792,0.079,0.0795,0.0802,0.0815,0.0822,0.0826,0.0836,0.0847,0.0855,0.0865,0.0866,0.087,0.0871,0.0881,0.0908,0.0884,0.0887,0.0889,0.091,0.0976,0.0987,0.0871,0.0871,0.0871,0,0,0.0785,0.0788,0.0795,0.0797,0.0812,0.0817,0.0821,0.0835,0.0842,0.0843,0.0873,0.0875,0.0872,0.0879,0.0885,0.088,0.0929,0.0891,0.0892,0.0913,0.0979,0.0991,0.1001,0.0872,0.0872,0.0872,0,0,0.0785,0.0802,0.0807,0.0813,0.0826,0.0833,0.0841,0.0854,0.0867,0.0885,0.0887,0.089,0.0908,0.0894,0.0892,0.091,0.094,0.0922,0.0952,0.1015,0.1026,0.1035,0.1053,0.1064,0.0922,0.0922,0.0922,0,0.0789,0.0787,0.0808,0.0812,0.0818,0.0843,0.0844,0.0862,0.0878,0.0892,0.0897,0.0935,0.0907,0.0924,0.0922,0.0912,0.0963,0.0935,0.1019,0.103,0.104,0.1055,0.1068,0.0923,0.0923,0.0923,0.0923,0,0.0788,0.0789,0.0797,0.0814,0.0827,0.0833,0.0853,0.0881,0.0907,0.0916,0.0955,0.0946,0.0972,0.0954,0.0939,0.0993,0.1009,0.1014,0.1012,0.1052,0.1065,0.1078,0.0924,0.0924,0.0923,0.0923,0,0,0.0785,0.0791,0.0796,0.0786,0.0825,0.0822,0.0868,0.0891,0.0917,0.0956,0.0987,0.0987,0.1014,0.1015,0.101,0.1051,0.1114,0.1075,0.1078,0.1092,0.1261,0.1135,0.1136,0.1169,0.1172,0.1175,0.1231,0,0.0775,0.0762,0.0782,0.0777,0.0767,0.0815,0.0853,0.0888,0.0921,0.096,0.0989,0.1005,0.1032,0.1034,0.1099,0.1111,0.1158,0.1099,0.1222,0.1224,0.1108,0.115,0.1185,0.124,0.1243,0.1246,0.1247,0,0.0768,0.075,0.0739,0.0738,0.0746,0.0764,0.0824,0.0855,0.093,0.0963,0.1038,0.1056,0.1114,0.1118,0.1247,0.1232,0.1261,0.1274,0.1277,0.1174,0.1123,0.1202,0.127,0.1269,0.1267,0.1265,0.1264,0,0.0731,0.0719,0.0702,0.0703,0.0723,0.0747,0.0781,0.086,0.0892,0.0963,0.1,0.11,0.1139,0.1241,0.129,0.1288,0.1423,0.1404,0.1322,0.1312,0.1405,0.1395,0.1502,0.1502,0.1502,0.1501,0.1501,0,0.0696,0.0674,0.068,0.0663,0.066,0.0709,0.0741,0.0796,0.0884,0.0924,0.1009,0.1059,0.1188,0.127,0.1323,0.1373,0.1465,0.134,0.1331,0.14,0.1389,0.1412,0.1401,0.1504,0.1503,0.1503,0.1502,0,0.0641,0.0652,0.0616,0.0628,0.0635,0.064,0.0706,0.0733,0.0841,0.0903,0.0925,0.1052,0.116,0.1266,0.1378,0.138,0.1426,0.1415,0.1466,0.1457,0.1259,0.1248,0.132,0.1316,0.1313,0.1311,0.1308,0,0.059,0.0574,0.0576,0.0563,0.0563,0.0582,0.0608,0.0704,0.0744,0.089,0.0914,0.1026,0.1107,0.12,0.1301,0.1387,0.1379,0.1376,0.1332,0.1263,0.1248,0.1241,0.1234,0.1303,0.1303,0.1302,0.1301,0,0.0485,0.0517,0.0493,0.0482,0.0486,0.0488,0.0534,0.0562,0.0691,0.0784,0.0878,0.0931,0.1043,0.1135,0.121,0.1269,0.1362,0.1343,0.135,0.1308,0.1244,0.123,0.1227,0.129,0.1292,0.1293,0.1293,0,0.0416,0.0391,0.0396,0.0384,0.0384,0.0397,0.0434,0.0496,0.0559,0.0742,0.076,0.0912,0.1024,0.1073,0.1146,0.1189,0.117,0.1125,0.1142,0.1155,0.1076,0.0969,0.0936,0,0,0,0,0,0.0345,0.0324,0.0295,0.0284,0.029,0.0308,0.0381,0.0441,0.0569,0.061,0.0695,0.0791,0.089,0.0958,0.0976,0.1058,0.1164,0.1067,0.1118,0.123,0.1242,0.1165,0,0,0,0,0,0,0.0305,0.0271,0.0266,0.0208,0.0195,0.0206,0.026,0.0353,0.0399,0.0538,0.0611,0.0704,0.0829,0.0878,0.0948,0.097,0.0975,0.1157,0.1154,0.1223,0.1234,0.1244,0.1169,0,0,0,0,0]},{"header":{"parameterUnit":"m.s-1","parameterCategory":2,"la1":30.2991,"la2":30.254,"lo1":-89.0895,"lo2":-89.0444,"dy":0.0017,"dx":0.0017,"nx":28,"ny":28,"refTime":"2025-09-19T03:00:00:Z","depth":"4","parameterNumber":3,"parameterNumberName":"V-component_of_CURRENTS"},"data":[0,0,0,0,0,0,0,0,0,0,0,0,0,0,0,0,0,0,0,0,0,0,0,0,0,0,0,0,0,0,0,0,0,0,0,0,0,0,0,0,0,0,0,0,0,0,0,0,0,0,0,0,0,0,0,0,0,0,0.0118,0.0118,0,0.0117,0.0117,0.0116,0.0113,0.0113,0.0113,0.0113,0.0119,0.0119,0.0119,0,0,0,0,0,0,0,0,0,0,0,0,0,0.0099,0.01,0.0118,0.0118,0.0118,0.0117,0.0117,0.0116,0.0113,0.0113,0.0113,0.0113,0.0119,0.0119,0.0119,0,0,0,0,0,0,0,0,0,0,0,0,0,0.0103,0.01,0.0118,0.0117,0.0117,0.0117,0.0117,0.0116,0.0113,0.0113,0.0113,0.0113,0.0119,0.0119,0.0119,0.0119,0,0,0.012,0.012,0,0,0,0,0,0,0,0,0.0103,0.0103,0.0118,0.0118,0.0118,0.0116,0.0112,0.0118,0.0113,0.0114,0.0113,0.0113,0.0119,0.0119,0.0117,0.0119,0.012,0.012,0.012,0.012,0.012,0,0,0,0,0,0,0,0.0102,0.0103,0.0117,0.0118,0.0118,0.0111,0.0111,0.0113,0.0116,0.0114,0.0114,0.0115,0.0119,0.0117,0.0118,0.012,0.012,0.012,0.012,0.012,0.0124,0.0124,0,0,0,0,0,0,0.0106,0.0103,0.0117,0.0117,0.0111,0.0111,0.0112,0.0116,0.0115,0.0116,0.0115,0.0115,0.0117,0.0117,0.0118,0.0135,0.012,0.012,0.012,0.0124,0.0124,0.0124,0,0,0,0,0,0,0.0105,0.0107,0.0117,0.011,0.0111,0.0112,0.0116,0.0116,0.0116,0.0117,0.0117,0.0117,0.0117,0.0118,0.0124,0.0134,0.012,0.012,0.0124,0.0124,0.0124,0.0157,0,0,0,0,0,0,0.0105,0.0107,0.011,0.0111,0.0112,0.012,0.0116,0.0116,0.0118,0.0118,0.0118,0.0118,0.0117,0.0124,0.0125,0.0134,0.012,0.0124,0.0124,0.0124,0.0156,0.0159,0.016,0,0,0,0,0,0.0104,0.0108,0.011,0.0112,0.0117,0.012,0.012,0.0119,0.0118,0.012,0.0121,0.0119,0.0124,0.0125,0.0125,0.0135,0.0124,0.0124,0.0124,0.0155,0.0158,0.016,0,0,0,0,0,0,0.01,0.0109,0.011,0.0117,0.012,0.012,0.012,0.0121,0.0123,0.0124,0.0123,0.0123,0.0132,0.0126,0.0126,0.0134,0.0122,0.0122,0.0146,0.0148,0.015,0.0137,0.0121,0,0,0,0,0,0.0101,0.0108,0.0114,0.0119,0.012,0.0121,0.0122,0.0124,0.0126,0.0126,0.0128,0.0128,0.0131,0.0134,0.0134,0.0141,0.0123,0.0145,0.0147,0.0149,0.0137,0.0121,0.0121,0.0124,0.0124,0.0124,0,0,0.01,0.0107,0.011,0.0119,0.0119,0.0127,0.0121,0.0125,0.0136,0.0127,0.0139,0.0137,0.0134,0.0143,0.0146,0.0141,0.014,0.0149,0.0151,0.0137,0.0121,0.0121,0.0121,0.0124,0.0124,0.0124,0,0,0.0106,0.0108,0.0117,0.0122,0.0129,0.0131,0.0134,0.0137,0.0142,0.0153,0.0149,0.0147,0.0157,0.0152,0.0153,0.0163,0.0151,0.0169,0.0171,0.0158,0.0157,0.0156,0.0141,0.0138,0.0171,0.0171,0.0171,0,0.0105,0.0122,0.012,0.0131,0.0139,0.0135,0.0148,0.015,0.0158,0.0161,0.0161,0.016,0.0158,0.0161,0.0165,0.0167,0.0159,0.0167,0.0161,0.0159,0.0158,0.0142,0.0139,0.0172,0.0172,0.0172,0.0172,0,0.0119,0.0135,0.0139,0.0155,0.0159,0.017,0.0175,0.0182,0.0187,0.0184,0.0188,0.018,0.0177,0.0179,0.0177,0.0171,0.0168,0.0167,0.0156,0.016,0.0143,0.0139,0.0175,0.0174,0.0174,0.0173,0,0,0.0117,0.0146,0.0149,0.0171,0.0177,0.0188,0.0199,0.0209,0.0223,0.0213,0.0222,0.0212,0.0197,0.0194,0.0189,0.0172,0.016,0.0168,0.0167,0.0155,0.0131,0.0125,0.012,0.0165,0.0165,0.0164,0.0125,0,0.0134,0.017,0.0174,0.0209,0.023,0.0231,0.0247,0.0252,0.0252,0.0257,0.0229,0.0233,0.0208,0.0214,0.0189,0.0172,0.015,0.017,0.0125,0.0123,0.012,0.0116,0.0162,0.0123,0.0122,0.0121,0.012,0,0.0148,0.0177,0.0214,0.0258,0.0266,0.0286,0.0313,0.0325,0.0316,0.0314,0.0289,0.0268,0.0237,0.0221,0.0165,0.0184,0.0153,0.013,0.0129,0.0104,0.011,0.0115,0.0113,0.0114,0.0114,0.0115,0.0115,0,0.016,0.0206,0.0244,0.0256,0.0296,0.0321,0.0341,0.0344,0.0364,0.0345,0.0349,0.0299,0.0289,0.0233,0.0177,0.0177,0.0118,0.0114,0.0072,0.0071,0.0074,0.0075,0.0064,0.0064,0.0064,0.0064,0.0065,0,0.0179,0.0212,0.0263,0.0285,0.0346,0.0354,0.0405,0.0412,0.0419,0.0432,0.038,0.0374,0.0294,0.0249,0.0187,0.0118,0.0123,0.0062,0.0058,0.009,0.0093,0.0072,0.0073,0.0063,0.0063,0.0064,0.0064,0,0.0189,0.0214,0.027,0.0329,0.0356,0.0399,0.0463,0.0495,0.0489,0.0503,0.0497,0.0438,0.0372,0.0291,0.0205,0.0143,0.0073,0.0047,0.0088,0.0088,0.0031,0.0034,-0.0011,-0.0012,-0.0012,-0.0013,-0.0013,0,0.0201,0.0231,0.0309,0.0354,0.039,0.0458,0.0508,0.0531,0.0554,0.0537,0.054,0.0482,0.0431,0.0303,0.0211,0.0089,0.0069,0.0027,0.0014,0.0021,0.0021,0.0026,0.003,-0.0014,-0.0014,-0.0014,-0.0014,0,0.0233,0.0256,0.03,0.039,0.0459,0.0536,0.0599,0.0613,0.0621,0.0623,0.0573,0.049,0.0416,0.03,0.0212,0.0121,0.0049,0.0021,0.0021,0.0009,0.0017,0.0019,0.0024,-0.0016,-0.0016,-0.0016,-0.0016,0,0.0259,0.0293,0.0347,0.0428,0.0506,0.0574,0.0614,0.0639,0.0658,0.0622,0.0605,0.0509,0.0457,0.0317,0.0232,0.0146,0.0114,0.0072,0.0068,0.0069,0.01,0.0123,0.0112,0,0,0,0,0,0.0285,0.0318,0.0387,0.0468,0.0541,0.0592,0.0653,0.0678,0.0675,0.0648,0.0624,0.0547,0.04,0.0335,0.0248,0.0218,0.01,0.011,0.0051,-0.0026,-0.0024,-0.0002,0,0,0,0,0,0,0.0299,0.0356,0.0381,0.0476,0.0535,0.0626,0.0661,0.0673,0.0652,0.0629,0.0559,0.0518,0.0387,0.0457,0.0245,0.0218,0.0164,0.0048,0.0045,-0.0027,-0.0025,-0.0023,-0.0001,0,0,0,0,0]}]]